Weather History for Montevideo, Uruguay

Change the Weather History Date:

Thursday, June 28, 2012

  Actual Average Record
Temperature  
Mean Temperature 63 °F -  
Max Temperature 73 °F 56 °F 73 °F (2012)
Min Temperature 53 °F 42 °F 26 °F (1997)
Degree Days  
Heating Degree Days 2    
Growing Degree Days 13 (Base 50)    
Moisture  
Dew Point 60 °F    
Average Humidity 92    
Maximum Humidity 100    
Minimum Humidity 78    
Precipitation  
Precipitation 0.91 in 0.12 in - ()
Sea Level Pressure  
Sea Level Pressure 29.86 in    
Wind  
Wind Speed 8 mph ()    
Max Wind Speed 23 mph    
Max Gust Speed -    
Visibility 3.4 miles    
Events Rain , Thunderstorm    
Averages and records for this station are not official NWS values.
T = Trace of Precipitation, MM = Missing Value Source: Averaged Metar Reports

Daily Weather History Graph

Daily Weather History Graph

Search for Another Location

Airport:

Trip Planner

Search our weather history database for the weather conditions in past years. The results will help you decide how hot, cold, wet, or windy it might be!

Date:

Astronomy

Jun. 28, 2012 Rise Set
Actual Time 7:52 AM UYT 5:42 PM UYT
Civil Twilight 7:24 AM UYT 6:10 PM UYT
Nautical Twilight 6:52 AM UYT 6:42 PM UYT
Astronomical Twilight 6:21 AM UYT 7:13 PM UYT
Moon 1:15 PM UYT (6/28) 2:00 AM UYT (6/28)
Length of Visible Light 10h 46m
Length of Day
9h 50m
Waxing Gibbous, 66% of the Moon is Illuminated
Jun 28
Waxing Gibbous
Jul 3
Full
Jul 10
Last Quarter
Jul 19
New
Jul 26
First Quarter

Hourly Weather History & Observations

Time (UYT) Temp. Dew Point Humidity Pressure Visibility Wind Dir Wind Speed Gust Speed Precip Events Conditions
12:00 AM 64.4 °F 60.8 °F 88% 29.89 in - NNE 6.9 mph - N/A   Clear
1:00 AM 64.4 °F 60.8 °F 88% 29.89 in - North 9.2 mph - N/A   Clear
2:00 AM 62.6 °F 59.0 °F 88% 29.89 in - North 8.1 mph - N/A   Clear
3:00 AM 63 °F 59 °F 84% 29.90 in 12 mi North 6.9 mph - -   Mostly Cloudy
3:00 AM 62.6 °F 59.0 °F 88% 29.89 in - North 6.9 mph - N/A   Clear
4:00 AM 62.6 °F 59.0 °F 88% 29.89 in - North 5.8 mph - N/A   Clear
5:00 AM 62.6 °F 59.0 °F 88% 29.86 in - North 6.9 mph - N/A   Clear
6:00 AM 62.6 °F 59.0 °F 88% 29.86 in - North 6.9 mph - N/A   Clear
7:00 AM 60.8 °F 59.0 °F 94% 29.86 in - North 6.9 mph - N/A   Clear
8:00 AM 60.8 °F 59.0 °F 94% 29.86 in 5.0 mi North 6.9 mph - N/A   Unknown
9:00 AM 62 °F 60 °F 93% 29.88 in 2 mi North 9.2 mph - -   Mist
9:00 AM 62.6 °F 60.8 °F 94% 29.89 in 5.0 mi North 9.2 mph - N/A   Unknown
10:00 AM 64.4 °F 62.6 °F 94% 29.89 in 5.0 mi NW 8.1 mph - N/A   Unknown
11:00 AM 68.0 °F 64.4 °F 88% 29.89 in 5.0 mi North 9.2 mph - N/A   Overcast
12:00 PM 69.8 °F 64.4 °F 83% 29.86 in 5.0 mi NNW 6.9 mph - N/A   Overcast
1:00 PM 73.4 °F 66.2 °F 78% 29.86 in 5.0 mi NW 8.1 mph - N/A   Mostly Cloudy
2:00 PM 73.4 °F 66.2 °F 78% 29.83 in 5.0 mi WNW 6.9 mph - N/A   Overcast
2:37 PM 73.4 °F 66.2 °F 78% 29.83 in 3.1 mi WNW 4.6 mph - N/A   Overcast
3:00 PM 67 °F 64 °F 87% 29.81 in 1 mi SSE 6.9 mph - - Rain Light Rain
3:00 PM 66.2 °F 64.4 °F 94% 29.80 in 1.9 mi SSE 6.9 mph - N/A Rain Rain
3:15 PM 66.2 °F 64.4 °F 94% 29.83 in 0.3 mi WNW 4.6 mph - N/A Rain Heavy Rain
3:35 PM 66.2 °F 64.4 °F 94% 29.83 in 1.2 mi SSE 3.5 mph - N/A Rain Rain
4:00 PM 66.2 °F 64.4 °F 94% - 0.6 mi South 11.5 mph - N/A Rain , Thunderstorm Thunderstorms and Rain
4:05 PM 60.8 °F 60.8 °F 100% 29.80 in 0.3 mi SSW 11.5 mph - N/A Rain , Thunderstorm Heavy Thunderstorms and Rain
4:25 PM 60.8 °F 60.8 °F 100% 29.80 in 1.2 mi South 6.9 mph - N/A Rain Rain
4:42 PM 60.8 °F 60.8 °F 100% 29.80 in 0.5 mi SE 4.6 mph - N/A   Drizzle
5:00 PM 57.2 °F 57.2 °F 100% 29.80 in 0.6 mi SSW 4.6 mph - N/A Rain Rain
5:35 PM 57.2 °F 57.2 °F 100% 29.80 in 1.9 mi South 23.0 mph - N/A Rain Rain
6:00 PM 53.6 °F 53.6 °F 100% 29.86 in 5.0 mi SSE 23.0 mph - N/A Rain Light Rain
7:00 PM 53.6 °F 51.8 °F 94% 29.86 in 6.2 mi SSE 19.6 mph - N/A   Overcast
7:45 PM 53.6 °F 51.8 °F 94% 29.92 in 5.0 mi SE 13.8 mph - N/A Rain Rain
8:00 PM 53.6 °F 51.8 °F 94% 29.92 in 3.7 mi SE 13.8 mph - N/A Rain Rain
9:00 PM 54 °F 54 °F 98% 29.91 in 2 mi East 9.2 mph - - Rain Light Rain
9:00 PM 53.6 °F 53.6 °F 100% 29.92 in 3.7 mi East 9.2 mph - N/A Rain Rain
10:00 PM 53.6 °F 53.6 °F 100% 29.89 in 3.7 mi East 11.5 mph - N/A   Overcast
11:00 PM 53.6 °F 53.6 °F 100% 29.89 in 5.0 mi Calm Calm - N/A   Overcast